Location: Caltech
(34.1382°N, 118.1253°W)
Time: 23:58:37
(UTC-07:00)

A-11 Canister half - All Passes

Search period start: 30 October 2014 00:00
Search period end: 08 November 2014 23:00
Orbit: 1518 x 1682 km, 47.2° (Epoch: 28 October)

Date Brightness Start Highest point End Pass type
(mag) Time Alt. Az. Time Alt. Az. Time Alt. Az.
30 Oct - 00:30:29 10° WNW 00:38:55 39° SW 00:47:15 10° SSE night (unlit)
30 Oct - 13:41:07 10° S 13:48:20 23° SE 13:55:25 10° E daylight
30 Oct - 15:42:19 10° SW 15:52:23 80° SE 16:02:09 10° NE daylight
30 Oct - 17:48:37 10° W 17:58:04 46° NNW 18:07:14 10° NE daylight
30 Oct - 19:56:13 10° WNW 20:05:06 38° N 20:13:43 10° ENE visible
30 Oct - 22:02:02 10° NW 22:11:32 66° NNE 22:20:45 10° ESE visible
31 Oct - 00:07:30 10° WNW 00:16:07 42° SW 00:24:36 10° SSE visible
31 Oct - 13:18:42 10° SSE 13:25:31 21° SE 13:32:14 10° E daylight
31 Oct - 15:19:26 10° SW 15:29:29 76° SE 15:39:16 10° NE daylight
31 Oct - 17:25:34 10° W 17:35:05 48° NNW 17:44:20 10° NE daylight
31 Oct - 19:33:12 10° WNW 19:42:06 38° N 19:50:43 10° ENE visible
31 Oct - 21:39:07 10° NW 21:48:38 64° NNE 21:57:50 10° ESE visible
31 Oct - 23:44:32 10° WNW 23:53:18 46° SW 00:01:56 10° SSE visible
01 Nov - 12:56:20 10° SSE 13:02:42 19° SE 13:08:59 10° E daylight
01 Nov - 14:56:34 10° SW 15:06:36 72° SE 15:16:22 10° ENE daylight
01 Nov - 17:02:30 10° W 17:12:07 50° NNW 17:21:27 10° NE daylight
01 Nov - 19:10:11 10° WNW 19:19:06 38° N 19:27:44 10° ENE visible
01 Nov - 21:16:12 10° NW 21:25:42 61° NNE 21:34:53 10° ESE visible
01 Nov - 23:21:34 10° WNW 23:30:30 49° SW 23:39:14 10° SSE visible
02 Nov - 11:34:02 10° SSE 11:39:53 17° ESE 11:45:40 10° E daylight
02 Nov - 13:33:43 10° SW 13:43:43 68° SE 13:53:28 10° ENE daylight
02 Nov - 15:39:27 10° W 15:49:08 52° NNW 15:58:33 10° NE daylight
02 Nov - 17:47:09 10° WNW 17:56:05 37° N 18:04:44 10° ENE visible
02 Nov - 19:53:17 10° NW 20:02:47 58° NNE 20:11:57 10° ESE visible
02 Nov - 21:58:36 10° WNW 22:07:40 53° SW 22:16:32 10° SSE visible
03 Nov - 11:11:50 10° SSE 11:17:05 15° ESE 11:22:16 10° E daylight
03 Nov - 13:10:54 10° SW 13:20:50 64° SE 13:30:33 10° ENE daylight
03 Nov - 15:16:24 10° W 15:26:10 54° NNW 15:35:39 10° NE daylight
03 Nov - 17:24:06 10° WNW 17:33:04 37° N 17:41:45 10° ENE visible
03 Nov - 19:30:22 10° NW 19:39:51 56° NNE 19:48:59 10° ESE visible
03 Nov - 21:35:39 10° WNW 21:44:51 56° SW 21:53:48 10° SSE visible
03 Nov - 23:46:00 10° WSW 23:48:13 11° WSW 23:50:27 10° SW night (unlit)
04 Nov - 10:49:47 10° SSE 10:54:16 14° ESE 10:58:44 10° E daylight
04 Nov - 12:48:05 10° SSW 12:57:57 61° SE 13:07:38 10° ENE daylight
04 Nov - 14:53:22 10° WSW 15:03:12 56° NNW 15:12:46 10° NE daylight
04 Nov - 17:01:03 10° WNW 17:10:03 38° N 17:18:47 10° ENE daylight
04 Nov - 19:07:26 10° NW 19:16:54 54° NNE 19:26:02 10° E visible
04 Nov - 21:12:43 10° WNW 21:22:01 60° SW 21:31:04 10° SSE visible
04 Nov - 23:21:57 10° W 23:25:27 13° WSW 23:28:57 10° SW night (unlit)
05 Nov - 10:27:56 10° SE 10:31:28 12° ESE 10:34:59 10° E daylight
05 Nov - 12:25:17 10° SSW 12:35:05 57° SE 12:44:42 10° ENE daylight
05 Nov - 14:30:20 10° WSW 14:40:14 58° NNW 14:49:53 10° NE daylight
05 Nov - 16:38:00 10° WNW 16:47:02 38° N 16:55:48 10° ENE daylight
05 Nov - 18:44:30 10° NW 18:53:57 52° NNE 19:03:04 10° E visible
05 Nov - 20:49:46 10° WNW 20:59:11 64° SW 21:08:18 10° SE visible
05 Nov - 22:58:18 10° W 23:02:41 14° WSW 23:07:03 10° SSW visible
06 Nov - 10:06:37 10° SE 10:08:40 11° ESE 10:10:43 10° ESE daylight
06 Nov - 12:02:30 10° SSW 12:12:13 53° SE 12:21:46 10° ENE daylight
06 Nov - 14:07:19 10° WSW 14:17:16 60° NNW 14:26:59 10° NE daylight
06 Nov - 16:14:56 10° WNW 16:24:01 38° N 16:32:49 10° ENE daylight
06 Nov - 18:21:33 10° NW 18:31:00 50° NNE 18:40:05 10° E visible
06 Nov - 20:26:50 10° WNW 20:36:20 68° SW 20:45:32 10° SE visible
06 Nov - 22:34:49 10° W 22:39:55 16° WSW 22:44:58 10° SSW visible
07 Nov - 11:39:44 10° SSW 11:49:21 50° SE 11:58:49 10° ENE daylight
07 Nov - 13:44:18 10° WSW 13:54:19 63° NNW 14:04:06 10° NE daylight
07 Nov - 15:51:53 10° WNW 16:01:00 38° N 16:09:51 10° ENE daylight
07 Nov - 17:58:36 10° NW 18:08:02 49° NNE 18:17:06 10° E visible
07 Nov - 20:03:54 10° WNW 20:13:29 73° SW 20:22:45 10° SE visible
07 Nov - 22:11:28 10° W 22:17:08 18° WSW 22:22:46 10° SSW visible
08 Nov - 11:17:00 10° SSW 11:26:29 47° SE 11:35:51 10° ENE daylight
08 Nov - 13:21:18 10° WSW 13:31:21 66° NNW 13:41:13 10° NE daylight
08 Nov - 15:28:48 10° WNW 15:37:59 39° N 15:46:53 10° ENE daylight
08 Nov - 17:35:39 10° NW 17:45:03 47° NNE 17:54:07 10° E visible
08 Nov - 19:40:59 10° NW 19:50:38 77° SW 19:59:56 10° SE visible
08 Nov - 21:48:11 10° W 21:54:22 20° SW 22:00:28 10° SSW visible
